TimeCST,TemperatureF,Dew PointF,Humidity,Sea Level PressureIn,VisibilityMPH,Wind Direction,Wind SpeedMPH,Gust SpeedMPH,PrecipitationIn,Events,Conditions,WindDirDegrees,DateUTC
12:52 AM,36.0,28.0,73,29.91,-9999.0,South,9.2,-,N/A,,Unknown,180,2013-11-19 06:52:00
1:52 AM,34.0,28.0,79,29.87,-9999.0,SSE,10.4,-,N/A,,Unknown,150,2013-11-19 07:52:00
2:52 AM,32.0,27.0,82,29.86,-9999.0,Variable,4.6,-,N/A,,Unknown,0,2013-11-19 08:52:00
3:52 AM,30.0,27.0,88,29.83,-9999.0,SSE,6.9,-,N/A,,Unknown,150,2013-11-19 09:52:00
4:52 AM,30.9,28.0,89,29.80,-9999.0,SE,9.2,-,N/A,,Unknown,130,2013-11-19 10:52:00
5:52 AM,30.9,28.0,89,29.78,-9999.0,SE,8.1,-,N/A,,Unknown,140,2013-11-19 11:52:00
6:52 AM,30.9,28.0,89,29.74,-9999.0,ESE,6.9,-,N/A,,Unknown,110,2013-11-19 12:52:00
7:52 AM,30.9,28.0,89,29.73,-9999.0,SE,6.9,-,N/A,,Unknown,130,2013-11-19 13:52:00
8:52 AM,32.0,28.9,88,29.70,-9999.0,SSE,8.1,-,N/A,,Unknown,150,2013-11-19 14:52:00
9:52 AM,34.0,28.9,82,29.67,-9999.0,SE,10.4,-,N/A,,Unknown,140,2013-11-19 15:52:00
10:52 AM,35.1,28.9,78,29.63,-9999.0,SE,11.5,-,N/A,,Unknown,130,2013-11-19 16:52:00
11:52 AM,36.0,30.0,79,29.60,-9999.0,SSE,10.4,-,N/A,,Unknown,160,2013-11-19 17:52:00
12:52 PM,37.0,30.0,76,29.57,-9999.0,South,10.4,-,N/A,,Unknown,190,2013-11-19 18:52:00
1:52 PM,37.9,30.9,76,29.55,-9999.0,South,10.4,-,N/A,,Unknown,190,2013-11-19 19:52:00
2:52 PM,39.0,30.9,73,29.53,-9999.0,SSW,8.1,-,N/A,,Unknown,200,2013-11-19 20:52:00
3:52 PM,39.0,32.0,76,29.54,-9999.0,SSW,8.1,-,N/A,,Unknown,200,2013-11-19 21:52:00
4:52 PM,37.0,30.9,79,29.56,-9999.0,North,-9999.0,-,N/A,,Unknown,0,2013-11-19 22:52:00
5:52 PM,35.1,30.9,85,29.56,-9999.0,SSW,3.5,-,N/A,,Unknown,210,2013-11-19 23:52:00
6:52 PM,33.1,30.0,89,29.58,-9999.0,WSW,3.5,-,N/A,,Unknown,250,2013-11-20 00:52:00
7:52 PM,30.9,28.0,89,29.60,-9999.0,NW,3.5,-,N/A,,Unknown,310,2013-11-20 01:52:00
8:52 PM,28.9,27.0,92,29.61,-9999.0,Calm,Calm,-,N/A,,Unknown,0,2013-11-20 02:52:00
9:52 PM,27.0,26.1,96,29.63,-9999.0,North,5.8,-,N/A,,Unknown,360,2013-11-20 03:52:00
10:52 PM,26.1,24.1,92,29.67,-9999.0,NNW,11.5,-,N/A,,Unknown,340,2013-11-20 04:52:00
11:52 PM,25.0,21.0,85,29.71,-9999.0,North,15.0,-,N/A,,Unknown,350,2013-11-20 05:52:00